Location: Archemont
(49.1579°N, 1.7598°E)
Time: 04:01:55
(UTC+00:00)

Transit 2A - Pass Details

Date: 18 April 2024
Orbit: 594 x 958 km, 66.7° (Epoch: 21 May)

Event Time Altitude Azimuth Distance (km) Brightness Sun altitude
Rises 12:55:19 0° 325° (NW) 3,125 9.0 49.8°
Reaches altitude 10° 12:58:16 10° 343° (NNW) 2,272 8.3 49.6°
Maximum altitude 13:02:00 19° 29° (NNE) 1,796 7.7 49.3°
Drops below altitude 10° 13:05:58 10° 75° (ENE) 2,445 8.4 49.0°
Sets 13:09:16 0° 92° (E) 3,448 9.2 48.7°
